Погода в Колке

Погода в Колке : погода сейчас, прогноз погоды и архив. Всё, что Вы хотите узнать о погоде в Колке!

Поиск расширенной информации на нашем сайте:

Другие новости

Новости СМИ2

Главная страница сайта

Новости сайта

03.07.2017

Напоминаем, что на нашем специализированном сайте Метеоцентр.Азия вы можете получить высокодетализированные автоматические прогнозы погоды по пунктам России, СНГ и мира в авиационном формате (включающие направление и скорость ветра, видимость, явления погоды, количество и форму облачности, нижнюю и верхнюю границу облачности).


Погода в Колке - сегодня

Время (UTC), дата Ветер
(°,м/с) 
Видим.   Явления Облачность Т
(°С)
Тd
(°С)
f(%) Тe
(°С)
Pmin
(гПа)
dP
(гПа)
Po
(мм)
O2
(г/м3)
Тmin Tmax R s Состояние
почвы
21 18.06.18 210 (ЮЗ) н/о    н/о 
+13.1 +10.6 85 +16  1015.3  0.3  761  290           
00 19.06.18 220 (ЮЗ) н/о    н/о 
+13.4 +12.1 92 +17  1013.9  -1.4  760  290           
03 19.06.18 220 (ЮЗ) н/о    н/о 
+14.5 +13 91 +20  1012.8  -1.1  759  287           
06 19.06.18 230 (ЮЗ) 5{10}  н/о    н/о 
+17.3 +13.9 80 +24  1010.8  -2  758  284  +12.9         
09 19.06.18 240 (ЮЗ) 4-11{11}  н/о    н/о 
+19.1 +13.6 70 +26  1009.3  -1.4  757  282           
12 19.06.18 260 (З) 7-12{19}  н/о    н/о 
+17.4 +12.4 72 +21  1009.3  757  284           
15 19.06.18 260 (З) 8-15{17}  н/о    н/о 
+19.1 +9.8 55 +20  1009.5  0.2  757  283           
18 19.06.18 260 (З) 5-11{17}  н/о    н/о 
+17.4 +12.2 72 +21  1010.3  0.7  757  284    +19.7       
21 19.06.18 250 (З) 3{12}  н/о    н/о 
+15.3 +10.8 75 +18  1010.6  0.3  758  286           
00 20.06.18 270 (З) 3{12}  н/о    н/о 
+14.8 +11.1 78 +17  1011.2  0.6  758  288           
03 20.06.18 280 (З) 6-14{12}  н/о    н/о 
+14.8 +8.9 68 +14  1012.1  0.9  759  288           
06 20.06.18 270 (З) 6-13{14}  н/о    н/о 
+15.4 +10.1 71 +16  1013.3  1.2  760  287  +14.4         
09 20.06.18 270 (З) 6-12{14}  н/о    н/о 
+16.7 +9.8 64 +17  1014.6  1.3  761  287           
12 20.06.18 270 (З) 7-12{15}  н/о    н/о 
+16.7 +9.5 62 +16  1014.8  0.2  761  287           
15 20.06.18 260 (З) 6-10{14}  н/о    н/о 
+17.4 +8.5 56 +17  1014.1  -0.7  760  286           
18 20.06.18 230 (ЮЗ) 3{14}  н/о    н/о 
+15.9 +9.7 67 +17  1012.6  -1.5  759  287    +18.4       
21 20.06.18 220 (ЮЗ) н/о    н/о 
+15.3 +13.4 88 +21  1009.4  -3.2  757  285           
00 21.06.18 260 (З) 6-11{14}  н/о    н/о 
+16 +14.8 93 +24  1008.3  -1.1  756  285           
03 21.06.18 260 (З) 2{10}  н/о    н/о 
+15.7 +15.2 97 +25  1007.6  -0.7  755  284           
06 21.06.18 210 (ЮЗ) 3{10}  н/о    н/о 
+16.6 +15.7 94 +27  1005.8  -1.7  754  282  +15.3         
09 21.06.18 260 (З) н/о    н/о 
+17.8 +15.5 86 +28  1005  -0.8  753  281           
12 21.06.18 240 (ЮЗ) 4{10}  н/о    н/о 
+21.1 +14.4 66 +29  1003.5  -1.5  752  278           
15 21.06.18 290 (З) 4{10}  н/о    н/о 
+17.5 +14.7 84 +26  1001.3  -2.2  751  281           
18 21.06.18 270 (З) 5-11{12}  н/о    н/о 
+13.5 +12.8 96 +18  1000.6  -0.8  750  285    +21.5       
21 21.06.18 220 (ЮЗ) н/о    н/о 
+11.6 +11.1 97 +14  998.8  -1.8  749  287           
Время (UTC), дата Ветер
(°,м/с) 
Видим.   Явления Облачность Т
(°С)
Тd
(°С)
f(%) Тe
(°С)
Pmin
(гПа)
dP
(гПа)
Po
(мм)
O2
(г/м3)
Тmin Tmax R s Состояние
почвы

Для получения пояснительной информации подведите курсор к названию столбца.

ПОГОДА в Колке - архив

Всё, что Вы хотите узнать о погоде в Колке - удобно и подробно!

Выберите нужную дату (начиная с 1 января 2015* года) и нажмите кнопку "Найти".
Будут отображены архивные сводки погоды по пункту Колка, начиная с указанной даты.


Отображать данные в формате CSV (для использования в таблицах Excel)


Внимание! Наш архив погоды предназначен исключительно для личного некоммерческого использования в познавательных целях. Если Вам необходимы официальные справки о состоянии погоды (для производственных, юридических, коммерческих и т.п. целей), обращайтесь в органы Росгидромета.

*Примечание: данная дата относится к архиву по метеостанциям СССР (Россия, СНГ, Балтия).
Архив по метеостанциям Зарубежной Европы и Азии (кроме Китая) хранится 10 дней, по другим регионам земного шара (Китай, Африка, Америка, Австралия, Океания) - 1 день.

Колка - район местоположения метеостанции


Название, широта, долгота, высота метеостанции:
Колка 57.8°ш. 22.6°д. 5 м над ур. моря [Латвия]

Дополнительная информация

В oтличие oт бoльшинства пoгoдных сайтoв мы публикуем пoдрoбную метеoинфoрмацию в детальнoм прoфессиoнальнoм фoрмате.

Характеристики температуры и влажнoсти вoздуха измеряются на высoте 2 м в тени вдали oт зданий и деревьев.
Скoрoсть ветра измеряется на высoте 10 м (на урoвне рoста челoвека скoрoсть ветра ниже в 1.5-2 раза). Если метеoстанция нахoдится в гoрoде или в лесу, тo скoрoсть ветра занижена на 2-4 м/с пo сравнению с oткрытым местoм. Скoрoсть ветра над акватoриями крупных рек и oзёр, а также на вершинах хoлмoв на 2-5 м/с выше, чем в oбычных услoвиях.
Атмoсфернoе давление в разных тoчках местнoсти мoжет значительнo oтличаться oт давления на метеoстанции, в зависимoсти oт услoвий рельефа (при пoдъёме на 10 м давление пoнижается примернo на 1 мм рт.ст.).